Weather History for Spencer, IA

Change the Weather History Date:

Saturday, November 24, 2012

  Actual Average Record
Temperature  
Mean Temperature 22 °F -  
Max Temperature 37 °F 38 °F 64 °F (2011)
Min Temperature 8 °F 17 °F -11 °F (1985)
Degree Days  
Heating Degree Days 42    
Moisture  
Dew Point 14 °F    
Average Humidity 64    
Maximum Humidity 84    
Minimum Humidity 41    
Precipitation  
Precipitation 0.00 in - - ()
Sea Level Pressure  
Sea Level Pressure 30.12 in    
Wind  
Wind Speed 7 mph (South)    
Max Wind Speed 18 mph    
Max Gust Speed 26 mph    
Visibility 10 miles    
Events      
Averages and records for this station are not official NWS values.
T = Trace of Precipitation, MM = Missing Value Source: NWS Daily Summary

Daily Weather History Graph

Daily Weather History Graph

Search for Another Location

Airport:

Trip Planner

Search our weather history database for the weather conditions in past years. The results will help you decide how hot, cold, wet, or windy it might be!

Date:

Astronomy

Nov. 24, 2012 Rise Set
Actual Time 7:25 AM CST 4:49 PM CST
Civil Twilight 6:54 AM CST 5:21 PM CST
Nautical Twilight 6:18 AM CST 5:56 PM CST
Astronomical Twilight 5:44 AM CST 6:30 PM CST
Moon 2:38 PM CST (11/24) 3:38 AM CST (11/24)
Length of Visible Light 10h 27m
Length of Day
9h 24m
Waxing Gibbous, 87% of the Moon is Illuminated
Nov 24
Waxing Gibbous
Nov 28
Full
Dec 6
Last Quarter
Dec 13
New
Dec 19
First Quarter

Hourly Weather History & Observations

Time (CST) Temp. Windchill Dew Point Humidity Pressure Visibility Wind Dir Wind Speed Gust Speed Precip Events Conditions
12:53 AM 9.0 °F 0.6 °F 3.9 °F 80% 30.43 in 10.0 mi NW 4.6 mph - N/A   Clear
1:53 AM 8.1 °F 1.4 °F 3.9 °F 83% 30.40 in 10.0 mi West 3.5 mph - N/A   Clear
2:53 AM 10.9 °F - 7.0 °F 84% 30.38 in 10.0 mi Calm Calm - N/A   Clear
3:53 AM 12.0 °F - 8.1 °F 84% 30.36 in 10.0 mi Calm Calm - N/A   Partly Cloudy
4:53 AM 15.1 °F - 10.0 °F 80% 30.34 in 10.0 mi Calm Calm - N/A   Clear
5:53 AM 16.0 °F 8.8 °F 12.0 °F 84% 30.34 in 10.0 mi South 4.6 mph - N/A   Mostly Cloudy
6:53 AM 17.1 °F 8.7 °F 12.0 °F 81% 30.32 in 10.0 mi SSE 5.8 mph - N/A   Mostly Cloudy
7:53 AM 18.0 °F 7.7 °F 12.0 °F 78% 30.30 in 10.0 mi SSE 8.1 mph - N/A   Partly Cloudy
8:53 AM 19.0 °F 9.0 °F 12.0 °F 74% 30.27 in 10.0 mi SSE 8.1 mph - N/A   Overcast
9:53 AM 21.0 °F 9.3 °F 12.9 °F 71% 30.24 in 10.0 mi SSE 11.5 mph - N/A   Overcast
10:53 AM 24.1 °F 12.5 °F 14.0 °F 65% 30.22 in 10.0 mi SSE 12.7 mph - N/A   Overcast
11:53 AM 28.0 °F 17.0 °F 15.1 °F 58% 30.14 in 10.0 mi SSE 13.8 mph - N/A   Overcast
12:53 PM 32.0 °F 21.6 °F 15.1 °F 50% 30.06 in 10.0 mi SSE 15.0 mph - N/A   Clear
1:53 PM 35.1 °F 24.5 °F 16.0 °F 46% 29.99 in 10.0 mi SSE 18.4 mph 26.5 mph N/A   Clear
2:53 PM 37.9 °F 28.2 °F 17.1 °F 43% 29.96 in 10.0 mi South 18.4 mph - N/A   Clear
3:53 PM 37.9 °F 28.5 °F 16.0 °F 41% 29.94 in 10.0 mi South 17.3 mph - N/A   Clear
4:53 PM 36.0 °F 27.1 °F 16.0 °F 44% 29.93 in 10.0 mi SSW 13.8 mph - N/A   Clear
5:53 PM 33.1 °F 26.1 °F 17.1 °F 52% 29.92 in 10.0 mi South 8.1 mph - N/A   Clear
6:53 PM 30.0 °F 25.2 °F 16.0 °F 56% 29.92 in 10.0 mi SSW 4.6 mph - N/A   Clear
7:53 PM 33.1 °F 25.5 °F 18.0 °F 54% 29.87 in 10.0 mi South 9.2 mph - N/A   Partly Cloudy
8:53 PM 35.1 °F 27.9 °F 19.0 °F 52% 29.88 in 10.0 mi SW 9.2 mph - N/A   Mostly Cloudy
9:53 PM 35.1 °F 29.3 °F 19.0 °F 52% 29.86 in 10.0 mi SW 6.9 mph - N/A   Clear
10:53 PM 32.0 °F 24.8 °F 19.9 °F 61% 29.87 in 10.0 mi West 8.1 mph - N/A   Clear
11:53 PM 35.1 °F 26.9 °F 21.0 °F 57% 29.88 in 10.0 mi WNW 11.5 mph - N/A   Clear